This demonstration page uses our WeatherBlox Daily Observations layout. Learn more.

Left ArrowRight Arrow

39.29038, -76.61219

Hourly Observations for October 12, 2020

Temp ( °F °C ) Dew Point ( °F °C ) Humidity (%) Winds ( mph kmh ) Pressure ( in mb ) Visibility ( mi km ) Precip ( " mm )
12:09 am 00:09 Cloudy with Rain 64 17.8 62 16.7 93 93 ENE 10 17 30.04 1017 2 3 0.04 1.02
12:54 am 00:54 Cloudy with Light Rain 64 17.8 62 16.7 93 93 ENE 13 20 30.03 1017 3 4 0.11 2.79
1:54 am 01:54 Cloudy with Light Rain 64 17.8 62 16.7 93 93 ENE 14 22 30.02 1017 3 5 0.10 2.54
2:43 am 02:43 Cloudy with Light Rain 64 17.8 61 16.1 90 90 ENE 16 26 30.01 1016 2 3 0.06 1.52
2:54 am 02:54 Cloudy with Light Rain 64 17.8 61 16.1 90 90 ENE 16 26 30.01 1016 2 3 0.07 1.78
3:19 am 03:19 Cloudy with Light Rain 63 17.2 61 16.1 93 93 ENE 14 22 30.00 1016 4 6 0.01 0.25
3:54 am 03:54 Cloudy with Light Rain 63 17.2 61 16.1 93 93 ENE 17 28 29.99 1016 3 5 0.02 0.51
4:54 am 04:54 Cloudy with Light Rain 62 16.7 60 15.6 93 93 ENE 18 30 29.98 1015 4 6 0.03 0.76
5:54 am 05:54 Cloudy with Rain 62 16.7 59 15 90 90 ENE 17 28 29.99 1016 3 5 0.13 3.30
6:41 am 06:41 Cloudy with Light Rain 60 15.6 58 14.4 93 93 NE 20 31 30.01 1016 2 2 0.11 2.79
6:54 am 06:54 Cloudy with Light Rain 60 15.6 58 14.4 93 93 NE 18 30 30.01 1016 2 2 0.13 3.30
7:35 am 07:35 Cloudy with Light Rain 60 15.6 57 13.9 90 90 ENE 20 31 30.02 1017 3 4 0.03 0.76
7:54 am 07:54 Cloudy with Light Rain 59 15 57 13.9 93 93 ENE 20 31 30.01 1016 2 3 0.04 1.02
8:27 am 08:27 Cloudy with Light Rain 59 15 56 13.3 90 90 ENE 21 33 30.03 1017 2 2 0.01 0.25
8:54 am 08:54 Cloudy with Light Rain 58 14.4 56 13.3 93 93 ENE 20 31 30.03 1017 1 2 0.02 0.51
9:35 am 09:35 Cloudy with Drizzle 58 14.4 56 13.3 93 93 ENE 17 28 30.03 1017 2 3 0.01 0.25
9:54 am 09:54 Cloudy with Drizzle 58 14.4 55 12.8 90 90 ENE 18 30 30.03 1017 4 6 0.01 0.25
10:54 am 10:54 Cloudy 59 15 55 12.8 87 87 ENE 17 28 30.02 1017 7 11 0.00 0.00
11:33 am 11:33 Cloudy with Drizzle 59 15 56 13.3 90 90 ENE 20 31 30.02 1017 7 11 0.00 0.00
11:54 am 11:54 Cloudy with Drizzle 59 15 56 13.3 90 90 ENE 21 33 30.01 1016 6 10 0.00 0.00
12:31 pm 12:31 Cloudy with Light Rain 60 15.6 56 13.3 86 86 NE 20 31 30.01 1016 2 3 0.01 0.25
12:54 pm 12:54 Cloudy with Drizzle 59 15 56 13.3 90 90 ENE 21 33 30.00 1016 3 4 0.01 0.25
1:24 pm 13:24 Cloudy with Drizzle 59 15 57 13.9 93 93 ENE 16 26 29.99 1016 2 2 0.01 0.25
1:54 pm 13:54 Cloudy with Light Rain 59 15 56 13.3 90 90 NE 16 26 29.98 1015 1 2 0.02 0.51
2:54 pm 14:54 Cloudy with Light Rain 59 15 57 13.9 93 93 NE 15 24 29.97 1015 2 2 0.03 0.76
3:54 pm 15:54 Cloudy with Drizzle 59 15 56 13.3 90 90 ENE 14 22 29.96 1015 2 2 0.01 0.25
4:54 pm 16:54 Cloudy with Drizzle 58 14.4 56 13.3 93 93 NE 17 28 29.95 1014 2 2 0.01 0.25
5:54 pm 17:54 Cloudy with Light Rain 58 14.4 56 13.3 93 93 NE 13 20 29.95 1014 1 2 0.02 0.51
6:54 pm 18:54 Cloudy with Light Rain 58 14.4 55 12.8 90 90 NE 10 17 29.95 1014 3 4 0.03 0.76
7:45 pm 19:45 Cloudy with Drizzle 58 14.4 56 13.3 93 93 NNE 12 19 29.95 1014 3 5 0.01 0.25
7:54 pm 19:54 Cloudy with Drizzle 58 14.4 56 13.3 93 93 NNE 10 17 29.95 1014 4 6 0.01 0.25
8:54 pm 20:54 Cloudy with Drizzle 58 14.4 56 13.3 93 93 NNE 9 15 29.94 1014 4 6 0.00 0.00
9:54 pm 21:54 Cloudy with Drizzle 58 14.4 56 13.3 93 93 NNE 8 13 29.93 1014 5 8 0.02 0.51
10:50 pm 22:50 Cloudy with Drizzle 59 15 57 14 94 94 NNE 6 9 29.94 1014 2 3 0.01 0.25
10:54 pm 22:54 Cloudy with Drizzle 59 15 57 13.9 93 93 N 7 11 29.93 1014 2 3 0.01 0.25
11:03 pm 23:03 Cloudy with Drizzle 59 15 57 13.9 93 93 NNE 7 11 29.93 1014 4 6 0.00 0.00
11:54 pm 23:54 Cloudy with Drizzle 59 15 57 13.9 93 93 NNE 7 11 29.91 1013 4 6 0.01 0.25

Powered by AerisWeather